Estación de Los Maquis
Ultimos registro cada 15 minutos 42
| N° | Estación | Fecha / Hora | Temperatura | Humedad | Lluvia | Velocidad | Dirección | Radiación | Presion |
| 42 | Los Maquis | 07-05-2026 10:15 | 9,2 | 93 | 0 | 0,9 | 261 | 93 | 1031,5 |
| 41 | Los Maquis | 07-05-2026 10:00 | 9,2 | 93 | 0 | 1,3 | 246 | 93 | 1031,6 |
| 40 | Los Maquis | 07-05-2026 09:45 | 9,2 | 94 | 0 | 0 | 291 | 100 | 1031,6 |
| 39 | Los Maquis | 07-05-2026 09:30 | 9,1 | 94 | 0 | 0,4 | 266 | 84 | 1031,4 |
| 38 | Los Maquis | 07-05-2026 09:15 | 9 | 94 | 0 | 0 | 67 | 83 | 1031,5 |
| 37 | Los Maquis | 07-05-2026 09:00 | 8,9 | 94 | 0 | 0 | 90 | 42 | 1031,3 |
| 36 | Los Maquis | 07-05-2026 08:45 | 8,8 | 94 | 0 | 0,9 | 274 | 23 | 1031,2 |
| 35 | Los Maquis | 07-05-2026 08:30 | 8,7 | 94 | 0 | 0,4 | 274 | 49 | 1030,9 |
| 34 | Los Maquis | 07-05-2026 08:15 | 8,7 | 94 | 0 | 0 | 7 | 26 | 1030,9 |
| 33 | Los Maquis | 07-05-2026 08:00 | 8,6 | 94 | 0 | 0 | 4 | 18 | 1030,5 |
| 32 | Los Maquis | 07-05-2026 07:45 | 8,6 | 94 | 0 | 0 | 63 | 12 | 1030,3 |
| 31 | Los Maquis | 07-05-2026 07:30 | 8,6 | 94 | 0 | 0 | 71 | 0 | 1030,2 |
| 30 | Los Maquis | 07-05-2026 07:15 | 8,6 | 94 | 0 | 0 | 71 | 0 | 1030,2 |
| 29 | Los Maquis | 07-05-2026 07:00 | 8,8 | 94 | 0 | 0,4 | 76 | 0 | 1030 |
| 28 | Los Maquis | 07-05-2026 06:45 | 8,8 | 94 | 0 | 0 | 48 | 0 | 1030,1 |
| 27 | Los Maquis | 07-05-2026 06:30 | 8,7 | 94 | 0 | 0 | 43 | 0 | 1029,9 |
| 26 | Los Maquis | 07-05-2026 06:15 | 8,8 | 94 | 0 | 0 | 43 | 0 | 1029,7 |
| 25 | Los Maquis | 07-05-2026 06:00 | 8,9 | 94 | 0 | 0 | 10 | 0 | 1029,5 |
| 24 | Los Maquis | 07-05-2026 05:45 | 8,8 | 93 | 0 | 0 | 286 | 0 | 1029,3 |
| 23 | Los Maquis | 07-05-2026 05:30 | 8,9 | 93 | 0 | 0 | 49 | 0 | 1029,3 |
| 22 | Los Maquis | 07-05-2026 05:15 | 9 | 93 | 0 | 0 | 49 | 0 | 1028,9 |
| 21 | Los Maquis | 07-05-2026 05:00 | 9 | 93 | 0 | 0 | 27 | 0 | 1028,9 |
| 20 | Los Maquis | 07-05-2026 04:45 | 9,2 | 93 | 0 | 0 | 57 | 0 | 1028,5 |
| 19 | Los Maquis | 07-05-2026 04:30 | 9,1 | 93 | 0 | 0 | 77 | 0 | 1028,5 |
| 18 | Los Maquis | 07-05-2026 04:15 | 9,1 | 93 | 0 | 0,9 | 71 | 0 | 1028,4 |
| 17 | Los Maquis | 07-05-2026 04:00 | 9,2 | 93 | 0 | 0 | 93 | 0 | 1028,3 |
| 16 | Los Maquis | 07-05-2026 03:45 | 9,4 | 93 | 0 | 0 | 49 | 0 | 1028,4 |
| 15 | Los Maquis | 07-05-2026 03:30 | 9,6 | 93 | 0 | 0 | 75 | 0 | 1028,2 |
| 14 | Los Maquis | 07-05-2026 03:15 | 9,7 | 94 | 0 | 0,4 | 74 | 0 | 1028,4 |
| 13 | Los Maquis | 07-05-2026 03:00 | 9,7 | 93 | 0 | 0 | 176 | 0 | 1028,3 |
| 12 | Los Maquis | 07-05-2026 02:45 | 9,8 | 93 | 0 | 0 | 62 | 0 | 1028,3 |
| 11 | Los Maquis | 07-05-2026 02:30 | 9,8 | 93 | 0 | 0 | 84 | 0 | 1028,3 |
| 10 | Los Maquis | 07-05-2026 02:15 | 9,8 | 93 | 0 | 0 | 88 | 0 | 1028,2 |
| 9 | Los Maquis | 07-05-2026 02:00 | 9,8 | 93 | 0 | 0 | 81 | 0 | 1027,9 |
| 8 | Los Maquis | 07-05-2026 01:45 | 9,8 | 93 | 0 | 0 | 81 | 0 | 1028 |
| 7 | Los Maquis | 07-05-2026 01:30 | 9,9 | 93 | 0 | 0 | 67 | 0 | 1027,7 |
| 6 | Los Maquis | 07-05-2026 01:15 | 10,1 | 94 | 0 | 0 | 65 | 0 | 1027,4 |
| 5 | Los Maquis | 07-05-2026 01:00 | 10,2 | 94 | 0 | 0 | 221 | 0 | 1027,4 |
| 4 | Los Maquis | 07-05-2026 00:45 | 10,3 | 94 | 0 | 0,4 | 254 | 0 | 1027,4 |
| 3 | Los Maquis | 07-05-2026 00:30 | 10,3 | 93 | 0 | 0,4 | 279 | 0 | 1027,5 |
| 2 | Los Maquis | 07-05-2026 00:15 | 10,3 | 93 | 0 | 0,4 | 282 | 0 | 1027,6 |
| 1 | Los Maquis | 07-05-2026 00:00 | 10,4 | 93 | 0 | 1,8 | 272 | 0 | 1027,5 |